�N����,����,�~����,�C��,���x,�C��,����,���ϕ���,�ő�u�ԕ���,�ő厞����,���˗�,�I�_���x,�n�����x,�ő啗���N��,DTYPE
"18/11/23","00:10",0.0,7.8,73.6,1014.0,264.4,2.7,4.4,247.8,0.00,3.4,11.3,"00:07:44",1
"18/11/23","00:20",0.0,7.6,74.0,1014.5,271.8,2.1,4.0,319.2,0.00,3.3,11.3,"00:12:00",1
"18/11/23","00:30",0.0,7.6,74.6,1014.2,261.6,2.2,3.6,286.4,0.00,3.4,11.3,"00:22:48",1
"18/11/23","00:40",0.0,7.5,74.4,1014.0,262.6,2.1,3.7,239.8,0.00,3.3,11.0,"00:35:52",1
"18/11/23","00:50",0.0,7.4,75.2,1014.0,266.8,2.1,3.7,261.0,0.00,3.3,11.1,"00:45:44",1
"18/11/23","01:00",0.0,7.3,74.9,1014.0,257.6,2.3,4.1,223.3,0.00,3.2,11.1,"00:50:56",1
"18/11/23","01:10",0.0,7.1,76.0,1014.0,259.8,1.7,2.8,247.3,0.00,3.2,11.0,"01:02:40",1
"18/11/23","01:20",0.0,7.1,76.6,1014.7,274.3,1.8,2.7,325.6,0.00,3.3,10.9,"01:19:12",1
"18/11/23","01:30",0.0,7.1,76.9,1014.5,261.3,1.8,3.2,248.8,0.00,3.4,10.8,"01:28:56",1
"18/11/23","01:40",0.0,7.2,76.6,1014.9,277.7,2.5,4.3,240.9,0.00,3.4,10.8,"01:38:00",1
"18/11/23","01:50",0.0,7.1,76.0,1014.9,245.6,1.3,2.5,298.5,0.00,3.2,11.0,"01:45:04",1
"18/11/23","02:00",0.0,7.0,77.4,1015.4,270.4,1.3,2.6,294.5,0.00,3.4,10.8,"01:55:28",1
"18/11/23","02:10",0.0,6.9,76.7,1014.9,273.8,1.8,2.7,266.4,0.00,3.1,11.0,"02:05:44",1
"18/11/23","02:20",0.0,7.0,76.7,1014.9,258.1,1.7,4.1,237.9,0.00,3.2,10.7,"02:15:52",1
"18/11/23","02:30",0.0,7.0,76.5,1014.9,258.3,2.1,3.9,243.1,0.00,3.2,10.7,"02:26:40",1
"18/11/23","02:40",0.0,6.8,76.3,1015.2,280.8,2.1,3.5,264.6,0.00,3.0,10.7,"02:30:16",1
"18/11/23","02:50",0.0,6.3,79.6,1015.6,293.9,2.5,4.1,332.0,0.00,3.1,10.6,"02:47:28",1
"18/11/23","03:00",0.0,6.6,79.7,1015.4,295.4,2.6,5.0,321.0,0.00,3.4,10.6,"02:50:16",1
"18/11/23","03:10",0.0,6.8,78.0,1015.2,282.0,2.2,3.3,296.3,0.00,3.3,10.6,"03:05:04",1
"18/11/23","03:20",0.0,6.9,77.3,1015.6,271.1,2.5,4.2,260.0,0.00,3.2,10.5,"03:16:40",1
"18/11/23","03:30",0.0,6.9,76.8,1015.6,275.9,2.3,3.7,282.6,0.00,3.2,10.5,"03:26:56",1
"18/11/23","03:40",0.0,6.8,77.2,1015.9,279.8,2.5,5.0,257.1,0.00,3.1,10.6,"03:35:28",1
"18/11/23","03:50",0.0,6.7,77.4,1015.4,266.7,2.3,4.2,267.1,0.00,3.1,10.6,"03:42:48",1
"18/11/23","04:00",0.0,6.2,77.5,1015.6,279.6,2.1,3.9,330.3,0.00,2.6,10.5,"03:58:00",1
"18/11/23","04:10",0.0,5.8,81.1,1015.4,284.2,2.0,3.7,279.0,0.00,2.9,10.4,"04:09:42",1
"18/11/23","04:20",0.0,5.5,80.5,1015.6,295.3,2.0,3.4,324.0,0.00,2.5,10.3,"04:19:12",1
"18/11/23","04:30",0.0,5.8,83.7,1015.9,292.9,2.3,3.7,266.6,0.00,3.3,10.5,"04:26:28",1
"18/11/23","04:40",0.0,6.0,82.6,1015.6,306.8,2.1,3.3,313.7,0.00,3.3,10.4,"04:35:20",1
"18/11/23","04:50",0.0,6.0,81.5,1015.6,303.6,2.1,4.0,319.3,0.00,3.1,10.4,"04:45:04",1
"18/11/23","05:00",0.0,5.9,82.1,1015.9,282.8,1.1,2.0,257.0,0.00,3.1,10.4,"04:57:04",1
"18/11/23","05:10",0.0,5.7,81.6,1015.9,305.5,1.2,1.9,310.8,0.00,2.8,10.3,"05:01:52",1
"18/11/23","05:20",0.0,5.1,82.3,1015.4,313.8,1.8,3.7,328.1,0.00,2.4,10.3,"05:17:04",1
"18/11/23","05:30",0.0,4.5,84.5,1015.9,322.9,1.8,2.9,326.0,0.00,2.2,10.2,"05:20:48",1
"18/11/23","05:40",0.0,4.1,86.1,1015.6,313.1,1.3,2.2,322.9,0.00,2.0,10.1,"05:34:00",1
"18/11/23","05:50",0.0,3.8,87.9,1015.9,291.4,1.2,2.1,324.3,0.00,2.0,10.1,"05:45:36",1
"18/11/23","06:00",0.0,3.7,89.1,1015.9,308.3,1.1,2.5,316.0,0.00,2.1,9.9,"05:59:12",1
"18/11/23","06:10",0.0,4.4,90.2,1015.6,23.0,0.5,1.9,324.9,0.00,3.0,10.0,"06:00:16",1
"18/11/23","06:20",0.0,4.9,90.3,1015.4,266.7,1.5,2.2,251.0,0.00,3.5,10.2,"06:15:28",1
"18/11/23","06:30",0.0,5.2,89.9,1015.9,305.7,1.3,2.2,315.6,0.00,3.7,10.1,"06:24:08",1
"18/11/23","06:40",0.0,5.2,89.7,1016.4,296.5,1.3,2.0,316.0,0.00,3.7,10.2,"06:32:56",1
"18/11/23","06:50",0.0,5.1,90.0,1015.9,310.7,2.0,2.6,326.2,0.00,3.6,10.2,"06:44:56",1
"18/11/23","07:00",0.0,5.0,90.5,1016.4,323.4,1.6,2.8,324.4,0.00,3.6,10.1,"06:52:32",1
"18/11/23","07:10",0.0,4.7,90.5,1016.4,318.0,2.2,3.1,326.9,0.00,3.3,10.1,"07:05:04",1
"18/11/23","07:20",0.0,4.9,90.9,1016.8,302.1,1.8,3.2,326.8,0.00,3.6,10.3,"07:19:44",1
"18/11/23","07:30",0.0,5.2,91.2,1016.8,314.0,2.5,3.3,312.7,0.00,3.9,9.9,"07:29:28",1
"18/11/23","07:40",0.0,5.6,90.7,1016.6,312.9,2.0,3.6,329.3,0.00,4.2,10.2,"07:30:16",1
"18/11/23","07:50",0.0,5.8,90.4,1017.1,275.9,1.0,1.7,264.2,0.00,4.4,10.2,"07:43:52",1
"18/11/23","08:00",0.0,6.0,90.7,1017.3,274.8,0.7,1.6,291.0,0.00,4.6,10.1,"07:59:52",1
"18/11/23","08:10",0.0,6.0,90.1,1017.8,293.1,1.3,2.0,301.5,0.01,4.5,10.4,"08:03:20",1
"18/11/23","08:20",0.0,6.0,89.6,1017.8,295.0,1.7,2.4,312.2,0.01,4.5,10.3,"08:14:16",1
"18/11/23","08:30",0.0,6.9,88.3,1017.8,311.6,2.1,4.3,331.3,0.05,5.1,10.5,"08:28:40",1
"18/11/23","08:40",0.0,7.9,83.5,1018.2,329.9,1.8,3.2,342.3,0.13,5.3,10.5,"08:36:40",1
"18/11/23","08:50",0.0,8.8,77.9,1018.5,313.9,1.6,3.4,331.7,0.20,5.2,10.5,"08:48:08",1
"18/11/23","09:00",0.0,8.4,74.6,1019.0,298.0,1.7,3.3,338.5,0.14,4.2,10.9,"08:56:16",1
"18/11/23","09:10",0.0,8.4,73.3,1019.0,279.0,2.3,4.0,283.2,0.06,3.9,10.7,"09:02:00",1
"18/11/23","09:20",0.0,8.4,73.5,1019.0,276.7,2.1,3.6,248.1,0.05,4.0,10.8,"09:11:28",1
"18/11/23","09:30",0.0,8.6,73.2,1018.7,272.7,1.7,3.4,266.9,0.08,4.1,11.1,"09:21:04",1
"18/11/23","09:40",0.0,8.9,73.8,1018.7,281.9,1.8,3.1,302.3,0.14,4.5,10.9,"09:37:52",1
"18/11/23","09:50",0.0,8.9,72.5,1019.0,286.6,2.0,3.3,319.6,0.21,4.3,11.2,"09:46:00",1
"18/11/23","10:00",0.0,9.2,71.9,1019.0,244.5,1.6,2.7,240.9,0.25,4.4,11.2,"09:52:32",1
"18/11/23","10:10",0.0,9.3,70.6,1018.7,259.7,1.3,2.9,235.4,0.18,4.3,11.2,"10:00:02",1
"18/11/23","10:20",0.0,9.7,70.8,1018.7,234.9,0.8,3.5,238.8,0.24,4.7,11.7,"10:10:08",1
"18/11/23","10:30",0.0,9.6,66.4,1019.0,260.0,1.6,4.1,235.5,0.32,3.7,11.8,"10:29:04",1
"18/11/23","10:40",0.0,9.7,66.4,1019.0,251.9,1.3,3.6,231.9,0.09,3.8,11.8,"10:37:20",1
"18/11/23","10:50",0.0,9.8,66.3,1018.7,292.3,1.7,3.2,261.3,0.15,3.9,11.9,"10:41:20",1
"18/11/23","11:00",0.0,10.2,66.0,1018.7,271.5,2.1,4.1,305.3,0.28,4.2,12.0,"10:53:04",1
"18/11/23","11:10",0.0,10.9,65.6,1018.5,277.6,2.0,3.6,321.8,0.39,4.8,12.2,"11:04:40",1
"18/11/23","11:20",0.0,10.8,64.1,1019.0,284.2,2.1,4.0,301.5,0.45,4.3,12.5,"11:17:52",1
"18/11/23","11:30",0.0,11.1,63.9,1018.2,292.0,2.6,4.5,315.7,0.47,4.6,12.5,"11:21:20",1
"18/11/23","11:40",0.0,10.5,66.4,1018.7,272.8,2.1,4.1,320.5,0.30,4.5,12.7,"11:33:52",1
"18/11/23","11:50",0.0,11.1,66.4,1018.0,275.4,1.8,3.9,258.0,0.45,5.1,13.0,"11:44:48",1
"18/11/23","12:00",0.0,11.6,63.7,1017.8,273.2,2.2,5.2,318.8,0.50,5.0,13.2,"11:59:44",1
"18/11/23","12:10",0.0,11.8,63.2,1017.5,273.9,2.7,5.8,238.7,0.47,5.1,13.4,"12:06:00",1
"18/11/23","12:20",0.0,11.8,60.7,1017.8,281.0,2.8,6.5,272.6,0.45,4.5,13.6,"12:16:08",1
"18/11/23","12:30",0.0,11.7,61.9,1017.8,293.5,2.7,7.2,313.1,0.46,4.7,13.6,"12:26:40",1
"18/11/23","12:40",0.0,10.9,62.9,1017.8,305.0,3.4,7.4,332.6,0.34,4.2,13.8,"12:36:16",1
"18/11/23","12:50",0.0,11.0,64.9,1017.3,288.0,3.0,10.0,346.5,0.34,4.7,14.0,"12:43:20",1
"18/11/23","13:00",0.0,11.9,64.0,1017.3,292.9,2.5,5.8,324.0,0.40,5.4,14.0,"12:52:24",1
"18/11/23","13:10",0.0,12.1,64.1,1017.3,314.1,2.8,5.0,325.9,0.38,5.6,14.1,"13:09:20",1
"18/11/23","13:20",0.0,12.0,62.4,1016.8,318.8,3.0,7.1,334.3,0.38,5.1,14.3,"13:19:12",1
"18/11/23","13:30",0.0,12.4,62.6,1017.3,325.3,3.1,7.0,341.9,0.29,5.5,14.4,"13:22:08",1
"18/11/23","13:40",0.0,11.2,65.7,1017.1,333.9,3.7,8.1,335.9,0.20,5.1,14.2,"13:30:56",1
"18/11/23","13:50",0.0,12.0,64.1,1016.6,318.8,4.0,6.7,341.3,0.40,5.5,14.4,"13:45:04",1
"18/11/23","14:00",0.0,11.6,63.7,1017.1,333.7,3.9,9.6,331.7,0.36,5.0,14.5,"13:58:32",1
"18/11/23","14:10",0.0,11.7,63.1,1016.8,325.6,4.2,7.5,330.5,0.28,5.0,14.7,"14:05:52",1
"18/11/23","14:20",0.0,11.8,64.0,1017.1,332.0,4.4,6.5,339.7,0.26,5.3,14.5,"14:10:08",1
"18/11/23","14:30",0.0,12.1,64.6,1016.8,329.1,4.0,7.2,325.2,0.28,5.7,14.4,"14:28:24",1
"18/11/23","14:40",0.0,11.3,65.2,1016.8,338.0,3.4,6.5,339.3,0.19,5.1,14.5,"14:36:16",1
"18/11/23","14:50",0.0,11.9,63.9,1016.8,331.3,3.5,6.3,332.7,0.23,5.3,14.6,"14:48:40",1
"18/11/23","15:00",0.0,11.1,63.9,1016.8,317.0,3.0,6.3,334.2,0.11,4.6,14.5,"14:59:44",1
"18/11/23","15:10",0.0,11.1,64.2,1017.3,305.7,3.1,6.2,329.2,0.17,4.6,14.4,"15:05:54",1
"18/11/23","15:20",0.0,11.0,64.1,1016.8,318.4,3.6,8.0,326.1,0.10,4.5,14.4,"15:13:12",1
"18/11/23","15:30",0.0,10.6,66.7,1017.3,330.1,4.2,5.8,330.4,0.06,4.7,14.2,"15:23:04",1
"18/11/23","15:40",0.0,10.4,67.5,1017.1,324.7,3.6,6.5,326.0,0.04,4.7,14.0,"15:37:18",1
"18/11/23","15:50",0.0,10.3,68.8,1017.1,322.3,3.9,6.3,345.9,0.04,4.9,14.0,"15:43:32",1
"18/11/23","16:00",0.0,10.2,69.9,1017.5,323.9,3.9,6.6,348.6,0.03,5.0,13.7,"15:54:42",1
"18/11/23","16:10",0.0,10.0,71.5,1017.5,320.2,3.6,6.6,332.4,0.02,5.1,13.8,"16:06:10",1
"18/11/23","16:20",0.0,9.5,74.3,1017.8,324.5,3.7,7.4,340.9,0.02,5.2,13.7,"16:16:00",1
"18/11/23","16:30",0.0,9.3,75.8,1017.8,324.7,4.2,6.8,323.0,0.01,5.3,13.4,"16:25:32",1
"18/11/23","16:40",0.0,9.3,76.1,1017.8,312.2,2.7,4.2,333.7,0.00,5.4,13.2,"16:33:20",1
"18/11/23","16:50",0.0,9.1,76.7,1018.0,305.8,3.0,5.0,333.2,0.00,5.3,13.3,"16:49:40",1
"18/11/23","17:00",0.0,8.9,77.1,1017.8,311.7,3.4,5.6,350.3,0.00,5.2,13.3,"16:54:32",1
"18/11/23","17:10",0.0,8.6,77.6,1018.0,306.4,3.0,6.2,323.3,0.00,5.0,12.9,"17:07:04",1
"18/11/23","17:20",0.0,8.4,78.1,1018.0,306.5,2.7,4.4,322.9,0.00,4.8,13.0,"17:15:52",1
"18/11/23","17:30",0.0,8.1,78.1,1018.5,312.5,2.5,4.1,308.3,0.00,4.6,12.7,"17:24:40",1
"18/11/23","17:40",0.0,8.0,78.3,1018.5,276.8,1.7,2.9,300.2,0.00,4.5,12.7,"17:36:40",1
"18/11/23","17:50",0.0,8.0,78.4,1018.5,270.2,1.8,3.3,241.1,0.00,4.5,12.7,"17:46:16",1
"18/11/23","18:00",0.0,7.9,78.9,1018.5,293.6,1.2,1.9,261.7,0.00,4.5,12.4,"17:50:24",1
"18/11/23","18:10",0.0,7.5,79.5,1018.2,263.5,0.7,2.1,309.3,0.00,4.2,12.3,"18:08:16",1
"18/11/23","18:20",0.0,7.4,81.0,1018.5,285.5,1.8,3.1,276.9,0.00,4.4,12.2,"18:19:04",1
"18/11/23","18:30",0.0,7.2,81.5,1018.5,315.9,2.8,3.9,330.3,0.00,4.3,12.2,"18:25:28",1
"18/11/23","18:40",0.0,7.2,82.3,1018.7,307.2,2.2,3.5,331.6,0.00,4.4,12.2,"18:36:24",1
"18/11/23","18:50",0.0,7.3,83.0,1018.7,289.8,2.1,3.5,322.8,0.00,4.6,12.0,"18:42:56",1
"18/11/23","19:00",0.0,7.7,82.3,1019.0,299.5,2.7,4.8,312.3,0.00,4.9,11.9,"18:53:12",1
"18/11/23","19:10",0.0,7.7,82.1,1019.2,287.8,2.2,3.7,284.3,0.00,4.9,11.9,"19:08:32",1
"18/11/23","19:20",0.0,7.7,81.9,1019.7,283.0,2.5,4.3,279.4,0.00,4.8,11.9,"19:10:08",1
"18/11/23","19:30",0.0,7.9,81.3,1019.7,294.0,2.8,5.1,335.6,0.00,4.9,11.6,"19:20:02",1
"18/11/23","19:40",0.0,7.7,81.2,1019.7,322.6,3.2,7.5,341.3,0.00,4.7,11.7,"19:31:52",1
"18/11/23","19:50",0.0,7.6,81.1,1019.9,310.5,2.7,5.1,319.3,0.00,4.6,11.6,"19:41:44",1
"18/11/23","20:00",0.0,7.4,81.9,1019.9,316.0,1.8,4.1,327.1,0.00,4.6,11.6,"19:59:44",1
"18/11/23","20:10",0.0,7.1,82.1,1019.7,11.2,0.8,3.1,324.1,0.00,4.3,11.6,"20:01:44",1
"18/11/23","20:20",0.0,6.4,82.4,1019.9,313.2,1.8,2.6,323.9,0.00,3.7,11.5,"20:15:44",1
"18/11/23","20:30",0.0,5.8,84.4,1019.9,318.7,1.5,2.6,348.9,0.00,3.4,11.4,"20:28:32",1
"18/11/23","20:40",0.0,5.1,85.6,1020.4,303.3,1.6,2.4,327.6,0.00,2.9,11.4,"20:32:40",1
"18/11/23","20:50",0.0,4.9,87.9,1020.1,294.9,0.8,1.9,316.1,0.00,3.1,11.2,"20:43:52",1
"18/11/23","21:00",0.0,4.6,88.0,1019.9,339.1,1.7,3.4,320.7,0.00,2.8,11.0,"20:54:48",1
"18/11/23","21:10",0.0,4.4,90.6,1019.9,320.4,2.1,2.7,320.6,0.00,3.0,11.0,"21:00:08",1
"18/11/23","21:20",0.0,4.4,90.3,1020.4,308.2,1.6,3.1,334.2,0.00,3.0,11.1,"21:12:00",1
"18/11/23","21:30",0.0,4.3,91.6,1020.1,312.5,1.7,2.6,325.3,0.00,3.1,10.7,"21:26:48",1
"18/11/23","21:40",0.0,4.2,92.3,1019.9,298.5,1.2,2.2,312.8,0.00,3.1,10.7,"21:31:20",1
"18/11/23","21:50",0.0,3.9,92.3,1020.1,305.6,1.6,2.5,322.2,0.00,2.8,10.7,"21:41:20",1
"18/11/23","22:00",0.0,3.6,93.2,1020.1,290.1,0.6,1.7,292.8,0.00,2.6,10.6,"21:59:36",1
"18/11/23","22:10",0.0,3.6,93.5,1020.4,296.5,1.5,2.0,292.5,0.00,2.7,10.4,"22:09:36",1
"18/11/23","22:20",0.0,3.6,93.9,1019.9,304.7,1.8,2.9,323.7,0.00,2.8,10.5,"22:18:48",1
"18/11/23","22:30",0.0,3.4,94.2,1019.9,299.4,1.3,2.4,315.3,0.00,2.6,10.4,"22:22:16",1
"18/11/23","22:40",0.0,3.2,94.3,1020.1,293.4,1.1,2.1,309.1,0.00,2.4,10.3,"22:39:28",1
"18/11/23","22:50",0.0,3.2,94.9,1020.1,305.9,2.0,3.6,322.6,0.00,2.5,10.2,"22:42:48",1
"18/11/23","23:00",0.0,3.3,95.6,1019.9,303.8,1.7,2.4,327.3,0.00,2.7,10.2,"22:55:36",1
"18/11/23","23:10",0.0,3.4,95.7,1019.9,310.7,2.1,3.3,331.3,0.00,2.8,10.0,"23:09:44",1
"18/11/23","23:20",0.0,3.5,94.9,1019.9,300.7,1.8,3.5,325.7,0.00,2.8,10.2,"23:12:00",1
"18/11/23","23:30",0.0,3.4,96.2,1020.1,279.2,1.5,2.1,296.8,0.00,2.9,9.8,"23:27:20",1
"18/11/23","23:40",0.0,3.4,95.4,1019.9,299.9,1.8,2.2,315.6,0.00,2.8,10.1,"23:34:48",1
"18/11/23","23:50",0.0,3.1,95.2,1019.9,298.7,1.2,1.8,292.9,0.00,2.4,10.0,"23:46:40",1
"18/11/23","24:00",0.0,2.8,95.8,1020.1,303.9,1.8,2.7,312.0,0.00,2.2,9.9,"23:59:20",1
